Location: Unspecified
(0.0000°N, 0.0000°E)
Time: 20:42:04
(UTC+00:00)

Tiros 1 - Pass Details

Date: 26 October 2021
Orbit: 630 x 664 km, 48.4° (Epoch: 04 December)

Event Time Altitude Azimuth Distance (km) Brightness Sun altitude
Rises 16:48:27 0° 350° (N) 2,909 10.5 13.5°
Reaches altitude 10° 16:51:36 10° 13° (NNE) 1,999 9.5 12.8°
Maximum altitude 16:54:22 16° 50° (NE) 1,654 8.8 12.1°
Drops below altitude 10° 16:57:08 10° 87° (E) 1,999 9.1 11.4°
Sets 17:00:16 0° 109° (ESE) 2,907 10.0 10.6°
